Regional Weather Roundup
Issued by NWS

Home | Current Version | Previous Version | Graphics & Text | Print | Product List | Glossary On
Versions: 1 2 3 4 5 6 7 8 9 10 11 12 13 14 15 16 17 18 19 20 21 22 23 24 25 26 27 28 29 30 31 32 33 34 35 36 37 38 39 40 41 42 43 44 45 46 47 48 49 50
000
ASUS45 KABQ 201610
RWRNM
NEW MEXICO REGIONAL WEATHER ROUNDUP
NATIONAL WEATHER SERVICE ALBUQUERQUE NM
900 AM MST FRI JAN 20 2017

NOTE: "FAIR" MEANS FEW OR NO CLOUDS BELOW 12,000 FEET AGL WITH NO
       SIGNIFICANT WEATHER OR OBSTRUCTIONS TO VISION.

      THIS PRODUCT IS RELEASED AS TWO VERSIONS.  ONE VERSION NEAR
      THE TOP OF THE HOUR CONTAINING PRELIMINARY DATA FROM ALBUQUERQUE
      AND OTHER STATIONS.  A FINAL VERSION WITH ADDITIONAL DATA IS
      ISSUED ABOUT 10 MINUTES AFTER THE HOUR.

NMZ501-503-504-510>518-201700-
NORTHWEST PLATEAU/NORTHCENTRAL MOUNTAINS

CITY           SKY/WX    TMP DP  RH WIND       PRES   REMARKS
FARMINGTON     CLOUDY    31  28  89 N3        29.71R
LOS ALAMOS     LGT SNOW  32  23  70 W8G17     29.68S WCI  24
SANTA FE       FAIR      33  24  69 W17G24    29.69R WCI  22
TAOS           CLOUDY    28  12  50 W8        29.65R WCI  20
ANGEL FIRE     LGT SNOW  22  17  79 W23G31    29.60S WCI   6

$$
NMZ402-403-502-505>509-201700-
WESTCENTRAL MOUNTAINS/SOUTHWEST MOUNTAINS

CITY           SKY/WX    TMP DP  RH WIND       PRES   REMARKS
GALLUP         PTSUNNY   31  26  82 SW16      29.76S WCI  20
GRANTS         LGT SNOW  32  26  78 NW12      29.78R WCI  23
SILVER CITY    CLOUDY    39  31  72 NW8       29.86R WCI  33

$$
NMZ407-409-411-412-201700-
SOUTHERN DESERTS

CITY           SKY/WX    TMP DP  RH WIND       PRES   REMARKS
DEMING         FAIR      41  30  65 W16G22    29.86R
LAS CRUCES     FAIR      44  29  55 W3        29.87R
HOLLOMAN AFB   PTSUNNY   47  31  53 SE12G21   29.86R
ALAMOGORDO     FAIR      46  30  53 S12       29.85R
T OR C         FAIR      44  26  49 SW12      29.78R

$$
NMZ519>523-201700-
CENTRAL VALLEYS/CENTRAL HIGHLANDS

CITY           SKY/WX    TMP DP  RH WIND       PRES   REMARKS
ALBUQUERQUE    FAIR      36  30  79 W7        29.75R WCI  30
DOUBLE EAGLE   PTSUNNY   36  28  75 SW15      29.74S WCI  26
MORIARTY ARPT  CLOUDY    34  25  69 W16       29.74R WCI  24
CLINES CORNERS FLURRIES  29  24  82 W24       29.69R WCI  15
BELEN          FAIR      38  31  78 W3        29.77S
SOCORRO        MIX PCPN  39  33  78 N3        29.78R

$$
NMZ524>526-539-540-201700-
SOUTHCENTRAL MOUNTAINS

CITY           SKY/WX    TMP DP  RH WIND       PRES   REMARKS
RUIDOSO        LGT SNOW  32  28  86 SW24      29.79R WCI  19

$$
NMZ527>531-201700-
NORTHEAST HIGHLANDS/NORTHEAST PLAINS

CITY           SKY/WX    TMP DP  RH WIND       PRES   REMARKS
LAS VEGAS      FAIR      33  19  56 W25G35    29.60S WCI  20
RATON          FAIR      38  14  37 SW14      29.50S WCI  30
CLAYTON        FAIR      44  27  51 W16G23    29.49S

$$
NMZ532>537-201700-
EASTCENTRAL PLAINS

CITY           SKY/WX    TMP DP  RH WIND       PRES   REMARKS
TUCUMCARI      PTSUNNY   48  31  51 W24G39    29.61F
CANNON AFB     SUNNY     46  36  66 W25G31    29.66R
CLOVIS AIRPORT FAIR      46  32  57 W23G29    29.65S

$$
NMZ028-029-538-201700-
SOUTHEAST PLAINS

CITY           SKY/WX    TMP DP  RH WIND       PRES   REMARKS
ROSWELL        FAIR      54  27  35 SW17G24   29.72R
ARTESIA        FAIR      52  30  43 SW16      29.75S
CARLSBAD       FAIR      57  27  31 W14G24    29.74R
HOBBS          SUNNY     52  28  40 W20       29.76R


$$



USA.gov is the U.S. government's official web portal to all federal, state and local government web resources and services.